Regional Weather Roundup
Issued by NWS

Home | Current Version | Previous Version | Text Only | Print | Product List | Glossary Off
Versions: 1 2 3 4 5 6 7 8 9 10 11 12 13 14 15 16 17 18 19 20 21 22 23 24 25 26 27 28 29 30 31 32 33 34 35 36 37 38 39 40 41 42 43 44 45 46 47 48 49 50

102
ASUS43 KLOT 211512
RWRIL

ILLINOIS REGIONAL WEATHER ROUNDUP
NATIONAL WEATHER SERVICE CHICAGO/ROMEOVILLE IL
900 AM CST TUE FEB 21 2017

NOTE: "FAIR" INDICATES FEW OR NO CLOUDS BELOW 12,000 FEET WITH NO
SIGNIFICANT WEATHER AND/OR OBSTRUCTIONS TO VISIBILITY.

* THESE STATIONS ARE NOT UNDER NWS QUALITY CONTROL. THEY ALSO MAY NOT
  REPORT WEATHER SUCH AS PRECIPITATION OR FOG.

ILZ001-002-007-009-015-016-024-211600-
NORTHWEST ILLINOIS

CITY           SKY/WX    TMP DP  RH WIND       PRES   REMARKS
MOLINE         CLOUDY    53  45  74 CALM      29.95S
STERLING*      MOSUNNY   53  47  79 N6        29.96S
SAVANNA*       CLOUDY    47  44  88 NW5       29.96R
$$

ILZ003-004-008-010-011-017-018-211600-
NORTH CENTRAL ILLINOIS

CITY           SKY/WX    TMP DP  RH WIND       PRES   REMARKS
ROCKFORD       PTSUNNY   51  46  83 NW5       29.97R
FREEPORT*      MOSUNNY   46  43  91 NW3       29.97R
ROCHELLE*      CLOUDY    52  50  91 N5        29.95S
DE KALB*       FOG       54  54  99 NW9       29.96R VSB 3/4
PERU*          FOG       55  54  97 CALM      29.95S VSB 3/4
$$

ILZ005-006-012>014-019>023-211600-
NORTHEAST ILLINOIS

CITY           SKY/WX    TMP DP  RH WIND       PRES   REMARKS
CHICAGO-OHARE  CLOUDY    57  53  86 W6        29.94R FOG
CHICAGO-MIDWAY CLOUDY    56  53  90 SW6       29.94R FOG
AURORA         CLOUDY    55  53  93 SW5       29.95R FOG
LANSING*       CLOUDY    54  54 100 S3        29.95F FOG
JOLIET*        PTSUNNY   57  56  97 CALM      29.95R FOG
WAUKEGAN       CLOUDY    56  53  90 W6        29.93S
DUPAGE AIRPORT CLOUDY    55  53  93 SW7       29.94S FOG
KANKAKEE*      DRIZZLE   53  53  97 SW6       29.98R
WHEELING       CLOUDY    56  54  93 SW5       29.95S
MORRIS*        CLOUDY    55  54  95 CALM      29.95R FOG
ROMEOVILLE*    CLOUDY    55  55 100 W6        29.95S FOG
NORTHERLY ISL    N/A     55  52  89 SW3         N/A
$$

LMZ740>746-211600-
SOUTHERN LAKE MICHIGAN

STATION/POSITION SKY/WX   TEMP    WIND        PRES    VSBY  WAVE
                          AIR SEA DIR/SP/G                  HT/PER
                          (F)     (DEG/KT/KT) (MB)    (MI)  (FT/S)
HARRISON CRIB              56     210/ 12/ 14   N/A
BURNHAM HARBOR             56     240/  5/  8   N/A
CALUMET HARBOR             54     190/  3/  5 1013.2F
BURNS HARBOR               54     180/  6/ 18 1014.2
MICHIGAN CITY              54     140/ 10/ 11   N/A
$$

ILZ025>027-034>036-040-047-049-050-058-095>099-211600-
WEST-CENTRAL ILLINOIS

CITY           SKY/WX    TMP DP  RH WIND       PRES   REMARKS
QUINCY         FOG       55  55 100 NE9       29.95S VSB 1/4
GALESBURG*     PTSUNNY   53  51  94 N3        29.95S
MACOMB*        CLOUDY    54  54 100 NE3       29.98S FOG
JACKSONVILLE*  CLOUDY    57  57  98 E5        29.95F FOG
PITTSFIELD*    CLOUDY    58  58 100 NE3       29.96S FOG
$$

ILZ028>032-037-038-041>044-048-051>054-059>061-211600-
CENTRAL ILLINOIS

CITY           SKY/WX    TMP DP  RH WIND       PRES   REMARKS
PONTIAC        CLOUDY    55  55  98 SE5       29.97S FOG
BLOOMINGTON    LGT RAIN  56  55  97 NW6       29.98R
DECATUR        CLOUDY    56  53  90 E8        29.95S
PEORIA         CLOUDY    57  57 100 CALM      29.96S FOG
LACON*         PTSUNNY   55  55 100 CALM      29.95R FOG
LINCOLN*       DRIZZLE   57  57 100 N6        29.96R
SPRINGFIELD    LGT RAIN  59  57  93 N9        29.94F
TAYLORVILLE    DRIZZLE   56  54  94 E5        29.94F
$$

ILZ033-039-045-046-055>057-062-063-211600-
EAST-CENTRAL ILLINOIS

CITY           SKY/WX    TMP DP  RH WIND       PRES   REMARKS
CHAMPAIGN      LGT RAIN  56  52  86 E6        29.97R
RANTOUL*       CLOUDY    56  54  92 CALM      29.97S
MATTOON        LGT RAIN  54  52  93 SE6       29.95F
PARIS*         LGT RAIN  54  51  89 CALM      29.98F
$$

ILZ079-100>102-211600-
SOUTHWEST ILLINOIS

CITY           SKY/WX    TMP DP  RH WIND       PRES   REMARKS
ALTON          LGT RAIN  55  55 100 E7        29.94R FOG
BELLEVILLE     CLOUDY    57  57 100 CALM      29.92F
CAHOKIA*       CLOUDY    60  57  89 E5        29.93S FOG
SPARTA*        CLOUDY    56  54  90 E3        29.95R
$$

ILZ064>066-069>071-074>076-080>082-084>086-088>090-092>094-211600-
SOUTH-CENTRAL ILLINOIS

CITY           SKY/WX    TMP DP  RH WIND       PRES   REMARKS
CARBONDALE     PTSUNNY   59  52  77 E3        29.94R
CAIRO*         MOSUNNY   60  51  72 NE7       29.92F
EFFINGHAM*     LGT RAIN  55  54  98 CALM      29.98S
MARION         CLOUDY    61  50  67 E5        29.95S
MT. VERNON     CLOUDY    58  51  78 CALM      29.96R
CENTRALIA*     DRIZZLE   57  54  88 N5        29.93F
SALEM*         LGT RAIN  58  52  78 E5        29.95F
METROPOLIS*    DRIZZLE   58  51  78 CALM      29.94F
$$

ILZ067-068-072-073-078-083-087-091-211600-
SOUTHEAST ILLINOIS

CITY           SKY/WX    TMP DP  RH WIND       PRES   REMARKS
LAWRENCEVILLE  CLOUDY    57  49  74 SE3       29.98S
FLORA*         PTSUNNY   58  51  78 CALM      29.97S
FAIRFIELD*     CLOUDY    57  49  74 CALM      29.95S
HARRISBURG*    PTSUNNY   57  51  78 CALM      29.97R
ROBINSON*      CLOUDY    52  49  89 CALM      29.99R
CARMI*         CLOUDY    56  51  84 E5        29.96S
$$

ABBREVIATIONS USED IN REMARKS
   TC - TEMPERATURE IN CELSIUS
  WCI - WIND CHILL INDEX
   HX - HEAT INDEX
  VSB - VISIBILITY
$$





USA.gov is the U.S. government's official web portal to all federal, state and local government web resources and services.